FW3031 Weather Reports


time (UTC)temp
F
wind
direction
speed
knots
gust
knots
rain 1hr
in
rain 24hr
in
rain mn
in
humidity
%
barometer
mb
20260906224018 86 190 0.0 2.6 0.00 0.02 0.02 54 1009.6
20260906223515 86 190 0.0 2.6 0.00 0.02 0.02 53 1009.6
20260906223106 86 0 0.0 2.6 0.00 0.01 0.01 53 1007.9
20260906223014 86 190 0.0 2.6 0.00 0.02 0.02 52 1009.7
20260906222517 86 190 0.0 2.6 0.00 0.02 0.02 53 1009.7
20260906222015 86 190 0.0 4.3 0.00 0.02 0.02 53 1009.7
20260906221604 86 190 1.7 4.3 0.00 0.01 0.01 53 1008.0
20260906221514 86 190 1.7 4.3 0.00 0.02 0.02 54 1009.8
20260906221013 86 190 0.0 4.3 0.00 0.02 0.02 55 1009.8
20260906220512 86 190 0.0 5.2 0.00 0.02 0.02 55 1009.9
20260906220104 86 190 0.9 7.0 0.00 0.01 0.01 55 1008.1
20260906220016 85 190 0.9 7.0 0.00 0.02 0.02 56 1009.8
20260906215516 85 190 2.6 7.0 0.00 0.02 0.02 56 1009.8
20260906215010 86 190 2.6 6.1 0.00 0.02 0.02 55 1009.9
20260906214605 86 190 1.7 6.1 0.00 0.01 0.01 54 1008.3
20260906214510 86 190 1.7 6.1 0.00 0.02 0.02 54 1010.0
20260906214009 86 190 1.7 5.2 0.00 0.02 0.02 54 1010.1
20260906213509 86 190 0.0 3.5 0.00 0.02 0.02 54 1010.2
20260906213111 87 190 0.0 5.2 0.00 0.01 0.01 52 1008.6
20260906213009 87 190 0.0 5.2 0.00 0.02 0.02 53 1010.3
20260906212507 87 190 0.9 5.2 0.00 0.02 0.02 51 1010.3
20260906212007 87 190 0.0 4.3 0.00 0.02 0.02 51 1010.4
20260906211612 87 190 1.7 5.2 0.00 0.01 0.01 48 1008.6
20260906211507 87 190 0.9 5.2 0.00 0.02 0.02 49 1010.3
20260906211008 87 190 0.9 5.2 0.00 0.02 0.02 48 1010.4
20260906210507 87 190 0.0 3.5 0.00 0.02 0.02 49 1010.4
20260906210111 87 0 0.0 5.2 0.00 0.01 0.01 49 1008.7
20260906210004 87 190 0.0 5.2 0.00 0.02 0.02 49 1010.5
20260906205504 87 190 1.7 5.2 0.00 0.02 0.02 49 1010.7
20260906205002 88 190 0.9 6.1 0.00 0.02 0.02 49 1010.9
20260906204605 88 190 1.7 5.2 0.00 0.01 0.01 48 1009.0
20260906204502 88 190 1.7 5.2 0.00 0.02 0.02 49 1010.9
20260906204001 88 190 0.0 0.0 0.00 0.00 0.02 50 1010.9
20260906203600 87 190 0.0 4.3 0.00 0.02 0.02 51 1011.0
20260906203103 87 190 0.0 3.5 0.00 0.02 0.02 50 1011.2
20260906203100 87 0 0.0 4.3 0.00 0.01 0.01 50 1009.2
20260906202558 86 190 0.0 4.3 0.00 0.02 0.02 51 1011.3
20260906202100 86 190 0.0 3.5 0.00 0.02 0.02 52 1011.4
20260906201616 86 190 0.9 4.3 0.00 0.01 0.01 50 1009.6
20260906201602 86 190 1.7 3.5 0.00 0.02 0.02 51 1011.6
20260906201056 86 190 0.0 4.3 0.00 0.02 0.02 51 1011.8
20260906200554 86 190 0.9 5.2 0.00 0.02 0.02 51 1011.8
20260906200104 86 0 0.9 5.2 0.00 0.01 0.01 51 1009.9
20260906200053 86 190 0.0 5.2 0.00 0.02 0.02 52 1011.9
20260906195552 86 190 0.9 5.2 0.00 0.02 0.02 52 1012.0
20260906195055 86 190 0.9 5.2 0.00 0.02 0.02 52 1012.1
20260906194601 86 0 0.0 5.2 0.00 0.01 0.01 52 1010.1
20260906194550 86 190 0.0 1.7 0.00 0.02 0.02 52 1012.2
20260906194049 85 190 0.0 5.2 0.00 0.02 0.02 53 1012.4
20260906193548 85 190 0.0 5.2 0.00 0.02 0.02 55 1012.5
20260906193100 85 190 0.0 3.5 0.00 0.01 0.01 54 1010.4
20260906193048 85 190 0.9 3.5 0.00 0.02 0.02 54 1012.7
20260906192545 85 190 0.0 3.5 0.00 0.02 0.02 55 1012.8
20260906192045 84 190 0.0 3.5 0.00 0.02 0.02 56 1012.9
20260906191607 84 190 0.0 3.5 0.00 0.01 0.01 57 1010.8
20260906191547 84 190 0.0 3.5 0.00 0.02 0.02 57 1013.0
20260906191042 83 190 0.9 3.5 0.00 0.02 0.02 57 1013.2
20260906190543 83 190 0.0 2.6 0.00 0.02 0.02 58 1013.5
20260906190040 83 190 0.0 4.3 0.00 0.02 0.02 58 1013.6
20260906185539 83 190 0.9 4.3 0.00 0.02 0.02 58 1013.7
20260906185038 83 190 0.9 3.5 0.00 0.02 0.02 58 1013.8
20260906184603 83 0 0.0 1.7 0.00 0.01 0.01 57 1011.8
20260906184540 83 190 0.0 1.7 0.00 0.02 0.02 58 1014.0
20260906184036 82 190 0.0 2.6 0.00 0.02 0.02 59 1014.2
20260906183536 82 190 0.0 2.6 0.00 0.02 0.02 59 1014.3
20260906183121 82 190 0.0 2.6 0.00 0.01 0.01 58 1012.2
20260906183043 82 190 0.0 2.6 0.00 0.02 0.02 61 1014.4
20260906182535 82 190 0.0 0.0 0.00 0.02 0.02 62 1014.6
20260906182036 81 190 0.0 2.6 0.00 0.02 0.02 63 1014.7
20260906181619 81 0 0.0 2.6 0.00 0.01 0.01 61 1012.8
20260906181542 81 190 0.0 2.6 0.00 0.02 0.02 62 1014.9
20260906181032 81 190 0.0 1.7 0.00 0.02 0.02 64 1015.0
20260906180531 80 190 0.0 3.5 0.00 0.02 0.02 64 1015.2
20260906180120 80 0 0.0 3.5 0.00 0.01 0.01 64 1013.2
20260906180030 80 190 0.0 3.5 0.00 0.02 0.02 64 1015.4
20260906175530 80 190 0.0 0.0 0.00 0.02 0.02 65 1015.5
20260906175028 80 190 0.0 1.7 0.00 0.02 0.02 66 1015.5
20260906174602 79 0 0.0 1.7 0.00 0.01 0.01 65 1013.6
20260906174529 79 190 0.0 1.7 0.00 0.02 0.02 66 1015.6
20260906174029 79 190 0.0 0.0 0.00 0.02 0.02 65 1015.7
20260906173525 79 190 0.0 2.6 0.00 0.02 0.02 66 1015.8
20260906173106 79 0 0.0 2.6 0.00 0.01 0.01 65 1013.9
20260906173025 79 190 0.0 2.6 0.00 0.02 0.02 67 1015.9
20260906172523 78 190 0.0 0.9 0.00 0.02 0.02 69 1016.0
20260906172023 77 190 0.0 0.9 0.00 0.02 0.02 68 1016.0
20260906171605 77 0 0.0 0.9 0.00 0.01 0.01 69 1014.1
20260906171521 77 190 0.0 0.0 0.00 0.02 0.02 70 1016.1
20260906171020 76 190 0.0 0.9 0.00 0.02 0.02 71 1016.1
20260906170518 76 190 0.0 0.9 0.00 0.02 0.02 71 1016.1
20260906170106 76 0 0.0 0.9 0.00 0.01 0.01 73 1014.0
20260906170019 76 190 0.0 0.9 0.00 0.02 0.02 73 1016.1
20260906165519 75 190 0.0 1.7 0.00 0.02 0.02 75 1016.1
20260906165018 75 190 0.0 1.7 0.00 0.02 0.02 73 1016.1
20260906164604 75 0 0.0 0.0 0.00 0.01 0.01 76 1014.0
20260906164518 75 190 0.0 0.0 0.00 0.02 0.02 76 1016.1
20260906164015 75 190 0.0 0.0 0.00 0.02 0.02 76 1016.2
20260906163514 75 190 0.0 0.0 0.00 0.02 0.02 75 1016.2
20260906163110 75 0 0.0 0.0 0.00 0.01 0.01 76 1014.1
20260906163018 75 190 0.0 0.0 0.00 0.02 0.02 76 1016.3
20260906162518 74 190 0.0 0.0 0.00 0.02 0.02 76 1016.3
20260906162014 74 190 0.0 0.0 0.00 0.02 0.02 76 1016.3
20260906161604 74 0 0.0 0.0 0.00 0.01 0.01 77 1014.2
20260906161514 74 190 0.0 0.0 0.00 0.02 0.02 78 1016.3
20260906161013 75 190 0.0 0.0 0.00 0.02 0.02 77 1016.4
20260906160514 74 190 0.0 0.0 0.00 0.02 0.02 79 1016.5
20260906160013 74 190 0.0 0.0 0.00 0.02 0.02 80 1016.6
20260906155517 74 190 0.0 0.0 0.00 0.02 0.02 81 1016.6
20260906155012 73 190 0.0 0.9 0.00 0.02 0.02 81 1016.6
20260906154608 73 0 0.0 0.9 0.00 0.01 0.01 80 1014.4
20260906154548 73 190 0.0 0.9 0.00 0.02 0.02 81 1016.7
20260906154047 73 190 0.0 0.0 0.00 0.02 0.02 82 1016.6
20260906153547 72 190 0.0 0.0 0.00 0.02 0.02 83 1016.6
20260906153102 72 0 0.0 0.0 0.00 0.01 0.01 82 1014.4
20260906153047 72 190 0.0 0.0 0.00 0.02 0.02 83 1016.6
20260906152545 72 190 0.0 0.0 0.00 0.02 0.02 84 1016.5
20260906152044 72 190 0.0 0.9 0.00 0.02 0.02 84 1016.4
20260906151601 72 0 0.0 0.9 0.00 0.01 0.01 83 1014.1
20260906151551 72 190 0.0 0.9 0.00 0.02 0.02 83 1016.3
20260906151043 71 190 0.0 0.0 0.00 0.02 0.02 85 1016.3
20260906150543 71 190 0.0 0.0 0.00 0.02 0.02 84 1016.1
20260906150106 71 0 0.0 0.9 0.00 0.01 0.01 84 1013.8
20260906150042 71 190 0.0 0.0 0.00 0.02 0.02 85 1016.0
20260906145543 71 190 0.0 0.9 0.00 0.02 0.02 85 1016.0
20260906145045 71 190 0.0 1.7 0.00 0.02 0.02 85 1016.0
20260906144607 71 190 0.0 0.9 0.00 0.01 0.01 85 1013.7
20260906144544 71 190 0.0 1.7 0.00 0.02 0.02 85 1016.0
20260906144042 71 190 0.0 0.0 0.00 0.02 0.02 85 1015.9
20260906143541 71 190 0.0 0.0 0.00 0.02 0.02 86 1015.8
20260906143101 70 0 0.0 1.7 0.00 0.01 0.01 86 1013.6
20260906143041 70 190 0.0 0.0 0.00 0.02 0.02 87 1015.9
20260906142541 70 190 0.0 1.7 0.00 0.02 0.02 87 1015.9
20260906142041 70 190 0.0 1.7 0.00 0.02 0.02 87 1015.8
20260906141608 70 0 0.0 0.0 0.00 0.01 0.01 87 1013.5
20260906141540 70 190 0.0 0.0 0.00 0.02 0.02 88 1015.8
20260906141040 69 190 0.0 0.0 0.00 0.02 0.02 89 1015.8
20260906140543 69 190 0.0 0.0 0.00 0.02 0.02 88 1015.8
20260906140103 69 0 0.0 1.7 0.00 0.01 0.01 89 1013.5
20260906140042 69 190 0.0 1.7 0.00 0.02 0.02 89 1015.7
20260906135539 69 190 0.0 1.7 0.00 0.02 0.02 89 1015.7
20260906135037 69 190 0.0 0.0 0.00 0.02 0.02 89 1015.6
20260906134606 69 0 0.0 0.0 0.00 0.01 0.01 89 1013.3
20260906134538 69 190 0.0 0.0 0.00 0.02 0.02 90 1015.6
20260906134038 68 190 0.0 0.0 0.00 0.02 0.02 90 1015.6
20260906133537 68 190 0.0 0.9 0.00 0.02 0.02 91 1015.6
20260906133107 68 0 0.0 2.6 0.00 0.01 0.01 91 1013.3
20260906133041 68 190 0.0 2.6 0.00 0.02 0.02 92 1015.5
20260906132538 68 190 0.0 2.6 0.00 0.02 0.02 92 1015.5
20260906132037 68 190 0.0 1.7 0.00 0.02 0.02 92 1015.4
20260906131608 68 0 0.0 0.0 0.00 0.01 0.01 92 1013.1
20260906131538 68 190 0.0 0.0 0.00 0.02 0.02 92 1015.3
20260906131036 68 190 0.0 0.9 0.00 0.02 0.02 92 1015.3
20260906130537 68 190 0.0 1.7 0.00 0.02 0.02 92 1015.3
20260906130111 68 190 0.0 1.7 0.00 0.01 0.01 91 1013.1
20260906130037 68 190 0.0 1.7 0.00 0.02 0.02 91 1015.2
20260906125535 68 190 0.0 0.0 0.00 0.02 0.02 91 1015.2
20260906125036 68 190 0.0 0.0 0.00 0.02 0.02 91 1015.2
20260906124602 68 0 0.0 0.0 0.00 0.01 0.01 90 1012.8
20260906124538 68 190 0.0 0.0 0.00 0.02 0.02 91 1015.0
20260906124035 68 190 0.0 0.0 0.00 0.02 0.02 91 1014.9
20260906123534 68 190 0.0 0.0 0.00 0.02 0.02 91 1014.8
20260906123102 68 0 0.0 0.0 0.00 0.01 0.01 91 1012.6
20260906123037 68 190 0.0 0.0 0.00 0.02 0.02 91 1014.8
20260906122535 68 190 0.0 0.0 0.00 0.02 0.02 92 1014.6
20260906122036 68 190 0.0 0.0 0.00 0.02 0.02 92 1014.6
20260906121609 68 0 0.0 0.0 0.00 0.01 0.01 92 1012.4
20260906121535 68 190 0.0 0.0 0.00 0.02 0.02 92 1014.5
20260906121035 68 190 0.0 0.0 0.00 0.02 0.02 92 1014.4
20260906120535 68 190 0.0 0.0 0.00 0.02 0.02 92 1014.4
20260906120032 67 190 0.0 0.0 0.00 0.02 0.02 92 1014.3
20260906115533 67 190 0.0 0.0 0.00 0.02 0.02 92 1014.3
20260906115033 68 190 0.0 0.0 0.00 0.02 0.02 92 1014.1
20260906114613 68 0 0.0 0.0 0.00 0.01 0.01 92 1012.1
20260906114532 68 190 0.0 0.0 0.00 0.02 0.02 92 1014.0
20260906114031 68 190 0.0 0.0 0.00 0.02 0.02 92 1014.1
20260906113532 68 190 0.0 0.0 0.00 0.02 0.02 92 1014.1
20260906113101 68 0 0.0 0.0 0.00 0.01 0.01 92 1012.0
20260906113034 68 190 0.0 0.0 0.00 0.02 0.02 92 1014.0
20260906112532 68 190 0.0 1.7 0.00 0.02 0.02 92 1014.2
20260906112031 68 190 0.0 1.7 0.00 0.02 0.02 92 1014.0
20260906111606 68 0 0.0 1.7 0.00 0.01 0.01 91 1012.0
20260906111531 68 190 0.0 1.7 0.00 0.02 0.02 91 1014.1
20260906111030 68 190 0.0 0.0 0.00 0.02 0.02 91 1014.1
20260906110530 68 190 0.0 0.0 0.01 0.02 0.02 91 1014.0
20260906110028 68 190 0.0 0.0 0.01 0.02 0.02 90 1014.2
20260906105528 68 190 0.0 0.0 0.01 0.02 0.02 90 1014.2
20260906105028 68 190 0.0 0.0 0.01 0.02 0.02 90 1014.2
20260906104607 68 0 0.0 0.0 0.00 0.01 0.01 89 1012.2
20260906104527 68 190 0.0 0.0 0.01 0.02 0.02 90 1014.3
20260906104028 68 190 0.0 0.0 0.01 0.02 0.02 90 1014.3
20260906103527 68 190 0.0 0.0 0.01 0.02 0.02 91 1014.3
20260906103105 68 0 0.0 0.0 0.00 0.01 0.01 90 1012.4
20260906103041 68 190 0.0 0.0 0.01 0.02 0.02 91 1014.4
20260906102531 68 190 0.0 0.0 0.01 0.02 0.02 91 1014.4
20260906102026 68 190 0.0 0.0 0.01 0.02 0.02 92 1014.4
20260906101600 68 0 0.0 1.7 0.00 0.01 0.01 91 1012.3
20260906101527 68 190 0.0 0.9 0.01 0.02 0.02 91 1014.4
20260906101029 68 190 0.0 1.7 0.01 0.02 0.02 91 1014.3
20260906100525 68 190 0.0 1.7 0.01 0.01 0.01 91 1014.3
20260906100028 68 190 0.0 1.7 0.01 0.01 0.01 91 1014.3
20260906095524 68 190 0.0 0.9 0.01 0.02 0.01 90 1014.2
20260906095024 68 190 0.0 0.0 0.01 0.02 0.01 90 1014.2
20260906094606 69 0 0.0 0.0 0.00 0.01 0.00 89 1012.0
20260906094522 68 190 0.0 0.0 0.01 0.02 0.01 90 1014.1
20260906094022 68 190 0.0 0.0 0.01 0.02 0.01 89 1014.0
20260906093522 68 190 0.0 0.0 0.01 0.02 0.01 89 1014.1
20260906093105 69 0 0.0 0.9 0.00 0.01 0.00 88 1011.9
20260906093024 68 190 0.0 0.0 0.01 0.02 0.01 88 1014.1
20260906092523 69 190 0.0 0.9 0.01 0.02 0.01 88 1014.1
20260906092022 69 190 0.0 0.9 0.01 0.02 0.01 87 1014.1
20260906091601 69 0 0.0 0.0 0.00 0.01 0.00 87 1012.0
20260906091519 69 190 0.0 0.0 0.01 0.02 0.01 87 1014.1
20260906091018 69 190 0.0 0.0 0.00 0.01 0.00 87 1014.1
20260906090517 69 190 0.0 0.0 0.00 0.01 0.00 86 1014.1
20260906090108 70 0 0.0 0.0 0.00 0.00 0.00 85 1012.0
20260906090016 69 190 0.0 0.0 0.00 0.01 0.00 85 1014.1
20260906085515 70 190 0.0 0.0 0.00 0.06 0.00 84 1014.1
20260906085015 70 190 0.0 0.0 0.00 0.06 0.00 84 1014.1
20260906084603 70 0 0.0 0.0 0.00 0.06 0.00 84 1011.9
20260906084514 70 190 0.0 0.0 0.00 0.06 0.00 84 1014.1
20260906084020 70 190 0.0 0.0 0.00 0.06 0.00 82 1014.1
20260906083512 70 190 0.0 0.0 0.00 0.06 0.00 81 1014.1
20260906083103 71 0 0.0 0.0 0.00 0.06 0.00 81 1012.0
20260906083012 70 190 0.0 0.0 0.00 0.06 0.00 81 1014.1
20260906082513 71 190 0.0 0.0 0.00 0.06 0.00 81 1014.2
20260906082011 71 190 0.0 0.0 0.00 0.06 0.00 82 1014.2
20260906081619 71 0 0.0 0.0 0.00 0.06 0.00 81 1012.0
20260906081512 70 190 0.0 0.0 0.00 0.06 0.00 82 1014.2
20260906081010 70 190 0.0 1.7 0.00 0.06 0.00 82 1014.2
20260906080509 70 190 0.0 1.7 0.00 0.06 0.00 81 1014.3
20260906080108 71 0 0.0 3.5 0.00 0.06 0.00 81 1012.1
20260906080009 71 190 0.0 0.9 0.00 0.06 0.00 81 1014.3
20260906075507 71 190 0.0 3.5 0.00 0.06 0.00 81 1014.3
20260906075006 71 190 0.9 3.5 0.00 0.06 0.00 80 1014.5
20260906074617 71 0 0.0 2.6 0.00 0.06 0.00 80 1012.3
20260906074505 71 190 0.0 1.7 0.00 0.06 0.00 80 1014.6
20260906074003 71 190 0.0 2.6 0.00 0.06 0.00 79 1014.7
20260906073503 71 190 0.0 2.6 0.00 0.06 0.00 78 1014.9
20260906073107 72 190 0.0 2.6 0.00 0.06 0.00 77 1012.7
20260906073001 72 190 0.0 2.6 0.00 0.06 0.00 77 1014.9
20260906072600 72 190 0.0 1.7 0.00 0.06 0.00 76 1014.9
20260906072101 72 190 0.0 0.0 0.00 0.06 0.00 73 1014.9
20260906071605 73 0 0.0 0.0 0.00 0.06 0.00 73 1012.8
20260906071600 72 190 0.0 0.0 0.00 0.06 0.00 74 1015.1
20260906071101 72 190 0.0 1.7 0.00 0.06 0.00 73 1015.1
20260906070558 73 190 0.0 3.5 0.00 0.06 0.00 73 1015.2
20260906070114 73 190 1.7 3.5 0.00 0.06 0.00 72 1013.2
20260906070056 73 190 0.9 3.5 0.00 0.06 0.00 73 1015.3
20260906065555 73 190 0.0 0.9 0.00 0.08 0.00 74 1015.4
20260906065054 73 190 0.0 2.6 0.00 0.08 0.00 73 1015.4
20260906064602 73 190 0.0 1.7 0.00 0.07 0.00 73 1013.4
20260906064557 73 190 0.0 2.6 0.00 0.08 0.00 73 1015.6
20260906064054 73 190 0.0 3.5 0.00 0.08 0.00 73 1015.6
20260906063551 73 190 0.0 3.5 0.00 0.08 0.00 73 1015.5
20260906063102 73 190 1.7 4.3 0.00 0.07 0.00 72 1013.3
20260906063052 73 190 1.7 4.3 0.00 0.08 0.00 72 1015.5
20260906062549 73 190 0.9 4.3 0.00 0.08 0.00 72 1015.6
20260906062049 74 190 0.9 3.5 0.00 0.08 0.00 71 1015.6
20260906061611 74 190 0.9 2.6 0.00 0.07 0.00 70 1013.3
20260906061548 74 190 0.9 2.6 0.00 0.08 0.00 70 1015.6
20260906061046 74 190 0.0 2.6 0.00 0.08 0.00 70 1015.6
20260906060545 74 190 0.0 4.3 0.00 0.08 0.00 71 1015.6
20260906060112 75 190 2.6 4.3 0.00 0.07 0.00 69 1013.3
20260906060043 75 190 2.6 4.3 0.00 0.08 0.00 69 1015.5
20260906055543 75 190 0.0 1.7 0.00 0.09 0.08 71 1015.6
20260906055044 75 190 0.0 0.9 0.00 0.09 0.08 71 1015.6
20260906054614 75 0 0.0 2.6 0.00 0.08 0.07 74 1013.4
20260906054543 75 190 0.0 2.6 0.00 0.09 0.08 74 1015.6
20260906054043 75 190 0.0 2.6 0.00 0.09 0.08 74 1015.6
20260906053543 75 190 0.0 2.6 0.00 0.09 0.08 75 1015.6
20260906053104 75 190 1.7 4.3 0.00 0.08 0.07 74 1013.4
20260906053043 75 190 0.9 4.3 0.00 0.09 0.08 75 1015.6
20260906052543 76 190 0.9 4.3 0.00 0.09 0.08 73 1015.6
20260906052043 76 190 0.0 3.5 0.00 0.09 0.08 69 1015.6
20260906051606 76 190 0.0 3.5 0.00 0.08 0.07 67 1013.4
20260906051543 76 190 0.0 3.5 0.00 0.09 0.08 67 1015.5
20260906051043 76 190 1.7 3.5 0.00 0.09 0.08 69 1015.5
20260906050544 76 190 0.0 2.6 0.00 0.09 0.08 72 1015.5
20260906050110 76 0 0.0 3.5 0.00 0.08 0.07 71 1013.3
20260906050045 76 190 0.0 3.5 0.00 0.09 0.08 71 1015.5
20260906045542 76 190 0.9 3.5 0.00 0.09 0.08 72 1015.5
20260906045042 76 190 0.9 3.5 0.00 0.09 0.08 72 1015.5
20260906044602 76 190 0.9 2.6 0.00 0.08 0.07 71 1013.3
20260906044544 76 190 0.9 3.5 0.00 0.09 0.08 72 1015.5
20260906044042 76 190 0.0 2.6 0.00 0.09 0.08 72 1015.4
20260906043541 76 190 0.9 2.6 0.00 0.09 0.08 71 1015.3
20260906043106 76 0 0.0 0.0 0.00 0.08 0.07 70 1013.0
20260906043041 76 190 0.0 0.0 0.00 0.09 0.08 71 1015.2
20260906042541 76 190 0.0 0.0 0.00 0.09 0.08 71 1015.1
20260906042041 76 190 0.0 0.0 0.00 0.09 0.08 70 1015.1
20260906041602 77 0 0.0 0.0 0.00 0.08 0.07 69 1012.9
20260906041541 77 190 0.0 0.0 0.00 0.09 0.08 70 1015.1
20260906041041 77 190 0.0 0.0 0.00 0.09 0.08 69 1015.0
20260906040541 76 190 0.0 0.0 0.00 0.09 0.08 70 1014.9
20260906040105 76 0 0.0 0.0 0.00 0.08 0.07 70 1012.8
20260906040040 76 190 0.0 0.0 0.00 0.09 0.08 70 1014.9
20260906035541 76 190 0.0 0.0 0.00 0.09 0.08 71 1014.8
20260906035039 76 190 0.0 0.0 0.00 0.09 0.08 71 1014.7
20260906034606 76 0 0.0 2.6 0.00 0.08 0.07 70 1012.6
20260906034540 76 190 0.0 1.7 0.00 0.09 0.08 71 1014.7
20260906034039 76 190 0.0 2.6 0.00 0.09 0.08 71 1014.6
20260906033538 77 190 0.9 2.6 0.00 0.09 0.08 70 1014.5
20260906033106 77 190 0.0 1.7 0.00 0.08 0.07 68 1012.5
20260906033039 77 190 0.0 1.7 0.00 0.09 0.08 69 1014.5
20260906032538 77 190 0.0 0.0 0.00 0.09 0.08 68 1014.5
20260906032038 77 190 0.0 0.0 0.00 0.09 0.08 67 1014.2
20260906031606 77 0 0.0 0.0 0.00 0.08 0.07 67 1012.0
20260906031540 77 190 0.0 0.0 0.00 0.09 0.08 68 1014.1
20260906031038 77 190 0.0 0.0 0.00 0.09 0.08 68 1014.0
20260906030538 77 190 0.0 2.6 0.00 0.09 0.08 68 1013.8
20260906030038 77 190 0.0 3.5 0.00 0.09 0.08 68 1013.5
20260906025537 77 190 0.0 3.5 0.00 0.09 0.08 68 1013.2
20260906025037 77 190 0.9 3.5 0.00 0.09 0.08 67 1013.3
20260906024608 77 190 0.9 3.5 0.00 0.08 0.07 67 1011.1
20260906024540 77 190 0.9 3.5 0.00 0.09 0.08 68 1013.1
20260906024041 77 190 0.9 3.5 0.00 0.09 0.08 68 1012.9
20260906023537 77 190 0.9 4.3 0.00 0.09 0.08 67 1012.9
20260906023102 77 190 0.9 3.5 0.00 0.08 0.07 66 1010.9
20260906023045 77 190 0.9 3.5 0.00 0.09 0.08 67 1012.9
20260906022537 77 190 0.0 3.5 0.00 0.09 0.08 67 1012.8
20260906022039 77 190 0.0 1.7 0.00 0.09 0.08 67 1012.8
20260906021607 77 0 0.0 2.6 0.00 0.08 0.07 66 1010.8
20260906021543 77 190 0.0 2.6 0.00 0.09 0.08 67 1012.7
20260906021036 77 190 0.9 2.6 0.00 0.09 0.08 66 1012.7
20260906020536 77 190 0.0 3.5 0.00 0.09 0.08 66 1012.6
20260906020108 77 0 0.0 4.3 0.00 0.08 0.07 65 1010.7
20260906020036 77 190 0.0 4.3 0.00 0.09 0.08 65 1012.6
20260906015535 78 190 0.9 3.5 0.00 0.09 0.08 64 1012.5
20260906015036 78 190 1.7 3.5 0.00 0.09 0.08 64 1012.3
20260906014604 78 0 0.0 4.3 0.00 0.08 0.07 63 1010.3
20260906014546 78 190 0.0 3.5 0.00 0.09 0.08 64 1012.2
20260906014035 78 190 0.9 4.3 0.00 0.09 0.08 63 1012.1
20260906013535 78 190 0.9 2.6 0.00 0.09 0.08 63 1012.0
20260906013103 78 0 0.9 4.3 0.00 0.08 0.07 62 1010.2
20260906013042 78 190 0.0 4.3 0.00 0.09 0.08 63 1012.1
20260906012534 78 190 0.0 4.3 0.00 0.09 0.08 62 1012.0
20260906012035 79 190 1.7 4.3 0.00 0.09 0.08 61 1012.0
20260906011601 79 190 1.7 6.1 0.00 0.08 0.07 60 1010.1
20260906011536 79 190 1.7 4.3 0.00 0.09 0.08 61 1011.9
20260906011037 79 190 0.9 6.1 0.00 0.09 0.08 61 1011.8
20260906010534 79 190 1.7 6.1 0.00 0.09 0.08 61 1011.5
20260906010108 79 190 4.3 7.8 0.00 0.08 0.07 60 1009.5
20260906010034 79 190 3.5 7.0 0.00 0.09 0.08 61 1011.3
20260906005533 80 190 2.6 7.8 0.00 0.09 0.08 60 1011.3
20260906005034 80 190 1.7 7.0 0.00 0.09 0.08 60 1011.2
20260906004603 81 190 3.5 6.1 0.00 0.08 0.07 59 1009.4
20260906004534 81 190 3.5 7.0 0.00 0.09 0.08 59 1011.2
20260906004033 81 190 2.6 6.1 0.00 0.09 0.08 59 1011.0
20260906003533 81 190 1.7 5.2 0.00 0.09 0.08 59 1010.9
20260906003108 82 190 0.9 4.3 0.00 0.08 0.07 57 1009.2
20260906003033 82 190 1.7 4.3 0.00 0.09 0.08 57 1010.9
20260906002532 82 190 0.9 4.3 0.00 0.09 0.08 57 1010.9
20260906002033 82 190 0.0 5.2 0.00 0.09 0.08 56 1011.0
20260906001605 82 190 2.6 5.2 0.00 0.08 0.07 55 1009.2
20260906001532 82 190 1.7 5.2 0.00 0.09 0.08 55 1010.8
20260906001034 83 190 0.9 3.5 0.00 0.09 0.08 56 1010.7
20260906000531 83 190 0.0 0.9 0.00 0.09 0.08 56 1010.6
20260906000105 83 0 0.0 5.2 0.00 0.08 0.07 56 1008.8
20260906000031 83 190 0.0 4.3 0.00 0.09 0.08 56 1010.3
20260905235531 83 190 1.7 5.2 0.00 0.09 0.08 55 1010.2
20260905235031 83 190 0.9 5.2 0.00 0.09 0.08 56 1010.1
20260905234607 83 190 2.6 7.8 0.00 0.08 0.07 56 1008.6
20260905234531 83 190 1.7 6.1 0.00 0.09 0.08 56 1010.0
20260905234032 83 190 3.5 7.8 0.00 0.09 0.08 55 1009.8
20260905233534 84 190 3.5 8.7 0.00 0.09 0.08 55 1009.7
20260905233105 84 190 3.5 9.6 0.00 0.08 0.07 53 1007.9
20260905233031 84 190 3.5 9.6 0.00 0.09 0.08 54 1009.6
20260905232530 85 190 4.3 9.6 0.00 0.09 0.08 53 1009.4
20260905232030 86 190 2.6 8.7 0.00 0.09 0.08 53 1009.4
20260905231602 86 190 2.6 6.1 0.00 0.08 0.07 52 1007.7
20260905231530 86 190 1.7 6.1 0.00 0.09 0.08 52 1009.3
20260905231032 86 190 1.7 7.8 0.00 0.09 0.08 52 1009.1
20260905230529 86 190 3.5 7.8 0.00 0.09 0.08 51 1009.3
20260905230112 87 190 1.7 7.0 0.00 0.08 0.07 51 1007.7
20260905230028 87 190 1.7 7.0 0.00 0.09 0.08 52 1009.3
20260905225528 87 190 0.9 7.0 0.00 0.09 0.08 53 1009.2
20260905225028 88 190 0.9 7.0 0.00 0.09 0.08 52 1009.3
20260905224609 88 190 2.6 7.0 0.00 0.08 0.07 51 1007.7
20260905224531 88 190 1.7 7.0 0.00 0.09 0.08 50 1009.2